Time,TemperatureF,DewpointF,PressureIn,WindDirection,WindDirectionDegrees,WindSpeedMPH,WindSpeedGustMPH,Humidity,HourlyPrecipIn,Conditions,Clouds,dailyrainin,SoftwareType,DateUTC
2013-06-23 00:03:00,72.2,66.0,29.66,South,173,5.0,7.0,81,0.00,,,0.37,Wunderground v.1.15,2013-06-23 05:03:00,
2013-06-23 00:08:00,72.6,66.1,29.66,South,172,6.0,7.0,80,0.00,,,0.00,Wunderground v.1.15,2013-06-23 05:08:00,
2013-06-23 00:14:00,72.7,66.2,29.65,South,173,5.0,6.0,80,0.00,,,0.00,Wunderground v.1.15,2013-06-23 05:14:00,
2013-06-23 00:20:00,72.7,66.2,29.65,South,173,7.0,7.0,80,0.00,,,0.00,Wunderground v.1.15,2013-06-23 05:20:00,
2013-06-23 00:25:00,72.7,66.2,29.65,South,173,5.0,7.0,80,0.00,,,0.00,Wunderground v.1.15,2013-06-23 05:25:00,
2013-06-23 00:31:00,72.7,66.5,29.65,South,172,6.0,6.0,81,0.00,,,0.00,Wunderground v.1.15,2013-06-23 05:31:00,
2013-06-23 00:37:00,72.6,66.4,29.65,South,173,3.0,8.0,81,0.00,,,0.00,Wunderground v.1.15,2013-06-23 05:37:00,
2013-06-23 00:42:00,72.6,66.4,29.64,South,172,6.0,8.0,81,0.00,,,0.00,Wunderground v.1.15,2013-06-23 05:42:00,
2013-06-23 00:48:00,72.6,66.4,29.64,South,173,6.0,8.0,81,0.00,,,0.00,Wunderground v.1.15,2013-06-23 05:48:00,
2013-06-23 00:53:00,72.8,66.6,29.65,South,173,8.0,8.0,81,0.00,,,0.00,Wunderground v.1.15,2013-06-23 05:53:00,
2013-06-23 00:59:00,73.1,66.6,29.65,South,173,8.0,8.0,80,0.00,,,0.00,Wunderground v.1.15,2013-06-23 05:59:00,
2013-06-23 01:01:00,73.2,66.7,29.65,South,173,3.0,6.0,80,0.00,,,0.00,Wunderground v.1.15,2013-06-23 06:01:00,
2013-06-23 01:07:00,73.3,66.4,29.65,South,173,4.0,9.0,79,0.00,,,0.00,Wunderground v.1.15,2013-06-23 06:07:00,
2013-06-23 01:12:00,73.3,66.4,29.65,South,172,4.0,7.0,79,0.00,,,0.00,Wunderground v.1.15,2013-06-23 06:12:00,
2013-06-23 01:18:00,73.3,66.0,29.64,South,172,6.0,9.0,78,0.00,,,0.00,Wunderground v.1.15,2013-06-23 06:18:00,
2013-06-23 01:24:00,73.4,66.1,29.64,South,173,4.0,9.0,78,0.00,,,0.00,Wunderground v.1.15,2013-06-23 06:24:00,
2013-06-23 01:29:00,73.1,66.2,29.64,South,173,6.0,9.0,79,0.00,,,0.00,Wunderground v.1.15,2013-06-23 06:29:00,
2013-06-23 01:35:00,72.9,66.0,29.64,South,173,8.0,8.0,79,0.00,,,0.00,Wunderground v.1.15,2013-06-23 06:35:00,
2013-06-23 01:41:00,72.7,66.2,29.64,South,172,3.0,7.0,80,0.00,,,0.00,Wunderground v.1.15,2013-06-23 06:41:00,
2013-06-23 01:46:00,72.8,66.3,29.65,South,173,10.0,10.0,80,0.00,,,0.00,Wunderground v.1.15,2013-06-23 06:46:00,
2013-06-23 01:52:00,73.1,66.2,29.64,South,173,9.0,9.0,79,0.00,,,0.00,Wunderground v.1.15,2013-06-23 06:52:00,
2013-06-23 01:58:00,73.4,66.1,29.64,South,173,8.0,9.0,78,0.00,,,0.00,Wunderground v.1.15,2013-06-23 06:58:00,
2013-06-23 02:03:00,73.5,66.2,29.64,South,171,5.0,10.0,78,0.00,,,0.00,Wunderground v.1.15,2013-06-23 07:03:00,
2013-06-23 02:08:00,73.5,66.2,29.63,SSE,168,11.0,12.0,78,0.00,,,0.00,Wunderground v.1.15,2013-06-23 07:08:00,
2013-06-23 02:13:00,73.6,66.3,29.63,SSE,166,8.0,11.0,78,0.00,,,0.00,Wunderground v.1.15,2013-06-23 07:13:00,
2013-06-23 02:18:00,73.6,66.3,29.63,SSE,163,7.0,12.0,78,0.00,,,0.00,Wunderground v.1.15,2013-06-23 07:18:00,
2013-06-23 02:23:00,73.6,66.3,29.63,SSE,160,10.0,13.0,78,0.00,,,0.00,Wunderground v.1.15,2013-06-23 07:23:00,
2013-06-23 02:28:00,73.5,66.2,29.63,SSE,158,8.0,13.0,78,0.00,,,0.00,Wunderground v.1.15,2013-06-23 07:28:00,
2013-06-23 02:33:00,73.3,66.0,29.63,SSE,157,6.0,14.0,78,0.00,,,0.00,Wunderground v.1.15,2013-06-23 07:33:00,
2013-06-23 02:38:00,73.4,66.1,29.62,SSE,156,12.0,16.0,78,0.00,,,0.00,Wunderground v.1.15,2013-06-23 07:38:00,
2013-06-23 02:43:00,73.3,66.0,29.62,SSE,157,8.0,15.0,78,0.00,,,0.00,Wunderground v.1.15,2013-06-23 07:43:00,
2013-06-23 02:48:00,73.3,66.0,29.61,SSE,160,4.0,18.0,78,0.00,,,0.00,Wunderground v.1.15,2013-06-23 07:48:00,
2013-06-23 02:53:00,73.3,66.0,29.61,SSE,163,7.0,19.0,78,0.00,,,0.00,Wunderground v.1.15,2013-06-23 07:53:00,
2013-06-23 02:58:00,73.5,66.2,29.61,SSE,163,10.0,19.0,78,0.00,,,0.00,Wunderground v.1.15,2013-06-23 07:58:00,
2013-06-23 03:03:00,73.5,66.2,29.60,SSE,157,8.0,16.0,78,0.00,,,0.00,Wunderground v.1.15,2013-06-23 08:03:00,
2013-06-23 03:08:00,73.5,66.2,29.60,SSE,160,11.0,16.0,78,0.00,,,0.00,Wunderground v.1.15,2013-06-23 08:08:00,
2013-06-23 03:13:00,73.4,66.1,29.60,SSE,161,11.0,15.0,78,0.00,,,0.00,Wunderground v.1.15,2013-06-23 08:13:00,
2013-06-23 03:18:00,73.5,66.2,29.60,SSE,165,8.0,15.0,78,0.00,,,0.00,Wunderground v.1.15,2013-06-23 08:18:00,
2013-06-23 03:23:00,73.5,66.2,29.60,SSE,161,9.0,15.0,78,0.00,,,0.00,Wunderground v.1.15,2013-06-23 08:23:00,
2013-06-23 03:28:00,73.7,66.4,29.62,South,185,8.0,15.0,78,0.00,,,0.00,Wunderground v.1.15,2013-06-23 08:28:00,
2013-06-23 03:33:00,74.2,66.5,29.63,South,178,9.0,20.0,77,0.00,,,0.00,Wunderground v.1.15,2013-06-23 08:33:00,
2013-06-23 03:38:00,74.5,66.8,29.63,South,178,6.0,20.0,77,0.00,,,0.00,Wunderground v.1.15,2013-06-23 08:38:00,
2013-06-23 03:43:00,74.6,66.9,29.63,South,184,10.0,20.0,77,0.00,,,0.00,Wunderground v.1.15,2013-06-23 08:43:00,
2013-06-23 03:48:00,74.0,67.1,29.64,SSW,205,8.0,20.0,79,0.00,,,0.00,Wunderground v.1.15,2013-06-23 08:48:00,
2013-06-23 03:53:00,73.4,66.9,29.63,SSW,211,17.0,21.0,80,0.00,,,0.01,Wunderground v.1.15,2013-06-23 08:53:00,
2013-06-23 03:58:00,72.9,67.1,29.64,SW,214,21.0,22.0,82,0.18,,,0.02,Wunderground v.1.15,2013-06-23 08:58:00,
2013-06-23 04:03:00,72.5,66.7,29.64,SSW,200,10.0,16.0,82,0.27,,,0.04,Wunderground v.1.15,2013-06-23 09:03:00,
2013-06-23 04:08:00,72.3,66.8,29.63,SSW,211,14.0,18.0,83,0.08,,,0.04,Wunderground v.1.15,2013-06-23 09:08:00,
2013-06-23 04:13:00,72.5,67.0,29.64,SW,221,16.0,25.0,83,0.05,,,0.04,Wunderground v.1.15,2013-06-23 09:13:00,
2013-06-23 04:18:00,72.1,66.6,29.65,SW,236,25.0,27.0,83,0.00,,,0.04,Wunderground v.1.15,2013-06-23 09:18:00,
2013-06-23 04:23:00,71.2,66.1,29.62,WSW,252,10.0,20.0,84,0.00,,,0.04,Wunderground v.1.15,2013-06-23 09:23:00,
2013-06-23 04:28:00,70.3,65.9,29.62,West,266,14.0,20.0,86,0.00,,,0.04,Wunderground v.1.15,2013-06-23 09:28:00,
2013-06-23 04:34:00,69.4,64.7,29.62,West,271,17.0,22.0,85,0.00,,,0.04,Wunderground v.1.15,2013-06-23 09:34:00,
2013-06-23 04:39:00,68.7,63.3,29.63,WSW,253,19.0,26.0,83,0.00,,,0.04,Wunderground v.1.15,2013-06-23 09:39:00,
2013-06-23 04:44:00,67.7,62.7,29.64,West,271,19.0,26.0,84,0.00,,,0.04,Wunderground v.1.15,2013-06-23 09:44:00,
2013-06-23 04:49:00,67.0,62.3,29.63,West,267,18.0,26.0,85,0.00,,,0.04,Wunderground v.1.15,2013-06-23 09:49:00,
2013-06-23 04:54:00,66.4,62.1,29.63,West,271,15.0,24.0,86,0.00,,,0.04,Wunderground v.1.15,2013-06-23 09:54:00,
2013-06-23 04:59:00,66.2,61.9,29.64,West,275,22.0,28.0,86,0.00,,,0.04,Wunderground v.1.15,2013-06-23 09:59:00,
2013-06-23 05:04:00,65.9,61.9,29.64,WNW,287,17.0,26.0,87,0.00,,,0.04,Wunderground v.1.15,2013-06-23 10:04:00,
2013-06-23 05:09:00,65.6,61.6,29.63,West,268,24.0,26.0,87,0.00,,,0.04,Wunderground v.1.15,2013-06-23 10:09:00,
2013-06-23 05:14:00,65.6,61.6,29.64,West,260,8.0,18.0,87,0.00,,,0.04,Wunderground v.1.15,2013-06-23 10:14:00,
2013-06-23 05:19:00,65.4,61.4,29.65,West,270,9.0,21.0,87,0.00,,,0.04,Wunderground v.1.15,2013-06-23 10:19:00,
2013-06-23 05:24:00,65.1,61.1,29.64,WSW,257,14.0,14.0,87,0.00,,,0.04,Wunderground v.1.15,2013-06-23 10:24:00,
2013-06-23 05:29:00,65.0,61.4,29.66,WSW,254,10.0,15.0,88,0.00,,,0.04,Wunderground v.1.15,2013-06-23 10:29:00,
2013-06-23 05:34:00,65.0,61.4,29.67,SW,231,8.0,11.0,88,0.00,,,0.04,Wunderground v.1.15,2013-06-23 10:34:00,
2013-06-23 05:39:00,64.9,61.3,29.68,SW,227,8.0,11.0,88,0.00,,,0.04,Wunderground v.1.15,2013-06-23 10:39:00,
2013-06-23 05:44:00,64.9,61.3,29.68,SW,227,5.0,9.0,88,0.00,,,0.04,Wunderground v.1.15,2013-06-23 10:44:00,
2013-06-23 05:49:00,65.0,61.0,29.69,SW,229,4.0,9.0,87,0.00,,,0.04,Wunderground v.1.15,2013-06-23 10:49:00,
2013-06-23 05:54:00,65.2,60.9,29.69,WSW,255,7.0,14.0,86,0.00,,,0.04,Wunderground v.1.15,2013-06-23 10:54:00,
2013-06-23 05:59:00,65.4,60.8,29.70,West,261,7.0,14.0,85,0.00,,,0.04,Wunderground v.1.15,2013-06-23 10:59:00,
2013-06-23 06:04:00,65.6,60.6,29.70,WSW,242,8.0,11.0,84,0.00,,,0.04,Wunderground v.1.15,2013-06-23 11:04:00,
2013-06-23 06:09:00,65.8,60.5,29.71,WSW,257,9.0,12.0,83,0.00,,,0.04,Wunderground v.1.15,2013-06-23 11:09:00,
2013-06-23 06:14:00,65.9,60.2,29.70,WSW,240,7.0,11.0,82,0.00,,,0.04,Wunderground v.1.15,2013-06-23 11:14:00,
2013-06-23 06:19:00,65.6,60.3,29.69,SW,226,5.0,11.0,83,0.00,,,0.04,Wunderground v.1.15,2013-06-23 11:19:00,
2013-06-23 06:24:00,65.6,60.3,29.69,SW,234,4.0,10.0,83,0.00,,,0.04,Wunderground v.1.15,2013-06-23 11:24:00,
2013-06-23 06:29:00,65.2,60.2,29.69,SW,223,4.0,10.0,84,0.00,,,0.04,Wunderground v.1.15,2013-06-23 11:29:00,
2013-06-23 06:34:00,65.0,60.0,29.69,SW,223,4.0,6.0,84,0.00,,,0.04,Wunderground v.1.15,2013-06-23 11:34:00,
2013-06-23 06:39:00,64.9,60.3,29.69,SW,223,2.0,8.0,85,0.00,,,0.04,Wunderground v.1.15,2013-06-23 11:39:00,
2013-06-23 06:44:00,64.8,60.2,29.69,SW,223,2.0,6.0,85,0.00,,,0.04,Wunderground v.1.15,2013-06-23 11:44:00,
2013-06-23 06:49:00,64.7,60.4,29.69,SW,223,4.0,8.0,86,0.00,,,0.04,Wunderground v.1.15,2013-06-23 11:49:00,
2013-06-23 06:54:00,64.7,60.4,29.70,SW,218,6.0,10.0,86,0.00,,,0.04,Wunderground v.1.15,2013-06-23 11:54:00,
2013-06-23 06:59:00,64.7,60.4,29.69,SW,217,8.0,8.0,86,0.00,,,0.04,Wunderground v.1.15,2013-06-23 11:59:00,
2013-06-23 07:04:00,64.7,60.4,29.70,SSW,209,6.0,12.0,86,0.00,,,0.04,Wunderground v.1.15,2013-06-23 12:04:00,
2013-06-23 07:09:00,64.7,60.4,29.69,South,184,10.0,10.0,86,0.00,,,0.04,Wunderground v.1.15,2013-06-23 12:09:00,
2013-06-23 07:14:00,64.7,60.4,29.68,South,180,6.0,11.0,86,0.00,,,0.04,Wunderground v.1.15,2013-06-23 12:14:00,
2013-06-23 07:19:00,64.6,60.3,29.68,South,182,4.0,7.0,86,0.00,,,0.04,Wunderground v.1.15,2013-06-23 12:19:00,
2013-06-23 07:24:00,64.5,60.2,29.68,South,188,5.0,10.0,86,0.00,,,0.04,Wunderground v.1.15,2013-06-23 12:24:00,
2013-06-23 07:30:00,64.3,60.3,29.66,South,188,4.0,6.0,87,0.00,,,0.05,Wunderground v.1.15,2013-06-23 12:30:00,
2013-06-23 07:35:00,64.3,60.3,29.65,South,188,4.0,6.0,87,0.00,,,0.05,Wunderground v.1.15,2013-06-23 12:35:00,
2013-06-23 07:40:00,64.3,60.3,29.63,SSE,168,6.0,6.0,87,0.00,,,0.05,Wunderground v.1.15,2013-06-23 12:40:00,
2013-06-23 07:45:00,64.0,60.1,29.60,SE,142,8.0,9.0,87,0.00,,,0.05,Wunderground v.1.15,2013-06-23 12:45:00,
2013-06-23 07:50:00,64.1,60.5,29.59,SE,143,7.0,7.0,88,0.00,,,0.05,Wunderground v.1.15,2013-06-23 12:50:00,
2013-06-23 07:55:00,64.1,60.5,29.58,SE,139,6.0,13.0,88,0.00,,,0.05,Wunderground v.1.15,2013-06-23 12:55:00,
2013-06-23 08:00:00,64.2,60.6,29.59,SE,133,8.0,8.0,88,0.00,,,0.05,Wunderground v.1.15,2013-06-23 13:00:00,
2013-06-23 08:05:00,64.3,60.7,29.59,SE,133,9.0,11.0,88,0.00,,,0.05,Wunderground v.1.15,2013-06-23 13:05:00,
2013-06-23 08:10:00,64.5,60.9,29.61,SE,136,3.0,6.0,88,0.00,,,0.05,Wunderground v.1.15,2013-06-23 13:10:00,
2013-06-23 08:15:00,64.6,60.6,29.64,SE,136,4.0,7.0,87,0.00,,,0.05,Wunderground v.1.15,2013-06-23 13:15:00,
2013-06-23 08:20:00,64.7,60.7,29.66,WNW,290,12.0,17.0,87,0.00,,,0.05,Wunderground v.1.15,2013-06-23 13:20:00,
2013-06-23 08:26:00,64.9,60.9,29.68,WNW,286,13.0,17.0,87,0.00,,,0.05,Wunderground v.1.15,2013-06-23 13:26:00,
2013-06-23 08:31:00,65.3,61.0,29.68,West,269,10.0,11.0,86,0.00,,,0.05,Wunderground v.1.15,2013-06-23 13:31:00,
2013-06-23 08:37:00,65.7,60.7,29.67,West,280,9.0,14.0,84,0.00,,,0.05,Wunderground v.1.15,2013-06-23 13:37:00,
2013-06-23 08:42:00,66.1,60.8,29.67,WNW,288,4.0,9.0,83,0.00,,,0.05,Wunderground v.1.15,2013-06-23 13:42:00,
2013-06-23 08:47:00,66.5,60.8,29.67,WNW,285,3.0,9.0,82,0.00,,,0.05,Wunderground v.1.15,2013-06-23 13:47:00,
2013-06-23 08:52:00,66.6,61.3,29.67,WNW,285,2.0,4.0,83,0.00,,,0.05,Wunderground v.1.15,2013-06-23 13:52:00,
2013-06-23 08:57:00,66.8,61.8,29.67,WNW,286,6.0,6.0,84,0.00,,,0.05,Wunderground v.1.15,2013-06-23 13:57:00,
2013-06-23 09:02:00,67.0,61.7,29.67,WNW,285,6.0,6.0,83,0.00,,,0.05,Wunderground v.1.15,2013-06-23 14:02:00,
2013-06-23 09:07:00,67.2,61.9,29.67,WNW,284,3.0,7.0,83,0.00,,,0.05,Wunderground v.1.15,2013-06-23 14:07:00,
2013-06-23 09:12:00,67.6,61.9,29.68,West,267,4.0,8.0,82,0.00,,,0.05,Wunderground v.1.15,2013-06-23 14:12:00,
2013-06-23 09:17:00,67.9,61.9,29.68,WSW,246,8.0,10.0,81,0.00,,,0.05,Wunderground v.1.15,2013-06-23 14:17:00,
2013-06-23 09:22:00,68.2,62.1,29.68,WSW,244,3.0,8.0,81,0.00,,,0.05,Wunderground v.1.15,2013-06-23 14:22:00,
2013-06-23 09:27:00,68.4,62.0,29.69,SW,231,7.0,9.0,80,0.00,,,0.05,Wunderground v.1.15,2013-06-23 14:27:00,
2013-06-23 09:32:00,68.5,62.4,29.69,SSW,211,3.0,8.0,81,0.00,,,0.05,Wunderground v.1.15,2013-06-23 14:32:00,
2013-06-23 09:37:00,68.5,62.1,29.69,SSW,212,3.0,10.0,80,0.00,,,0.05,Wunderground v.1.15,2013-06-23 14:37:00,
2013-06-23 09:42:00,68.5,62.4,29.70,SSW,213,5.0,9.0,81,0.00,,,0.05,Wunderground v.1.15,2013-06-23 14:42:00,
2013-06-23 09:47:00,68.5,62.1,29.71,WSW,242,8.0,11.0,80,0.00,,,0.05,Wunderground v.1.15,2013-06-23 14:47:00,
2013-06-23 09:52:00,68.5,62.4,29.71,WSW,252,10.0,11.0,81,0.00,,,0.05,Wunderground v.1.15,2013-06-23 14:52:00,
2013-06-23 09:57:00,68.6,62.5,29.71,WSW,247,7.0,11.0,81,0.00,,,0.05,Wunderground v.1.15,2013-06-23 14:57:00,
2013-06-23 10:03:00,68.8,62.7,29.71,WSW,246,5.0,8.0,81,0.00,,,0.05,Wunderground v.1.15,2013-06-23 15:03:00,
2013-06-23 10:08:00,69.0,62.9,29.71,WSW,242,9.0,10.0,81,0.00,,,0.05,Wunderground v.1.15,2013-06-23 15:08:00,
2013-06-23 10:13:00,69.1,62.7,29.72,WSW,242,9.0,9.0,80,0.00,,,0.05,Wunderground v.1.15,2013-06-23 15:13:00,
2013-06-23 10:18:00,69.2,62.8,29.72,WSW,241,5.0,11.0,80,0.00,,,0.05,Wunderground v.1.15,2013-06-23 15:18:00,
2013-06-23 10:23:00,69.2,62.8,29.72,WSW,246,8.0,11.0,80,0.00,,,0.05,Wunderground v.1.15,2013-06-23 15:23:00,
2013-06-23 10:28:00,69.2,62.8,29.72,WSW,244,9.0,11.0,80,0.00,,,0.05,Wunderground v.1.15,2013-06-23 15:28:00,
2013-06-23 10:34:00,69.3,62.9,29.72,WSW,244,7.0,9.0,80,0.00,,,0.05,Wunderground v.1.15,2013-06-23 15:34:00,
2013-06-23 10:39:00,69.4,63.0,29.73,WSW,250,7.0,12.0,80,0.00,,,0.05,Wunderground v.1.15,2013-06-23 15:39:00,
2013-06-23 10:44:00,69.6,63.2,29.74,WSW,248,10.0,13.0,80,0.00,,,0.05,Wunderground v.1.15,2013-06-23 15:44:00,
2013-06-23 10:49:00,69.7,62.9,29.74,WSW,245,6.0,13.0,79,0.00,,,0.05,Wunderground v.1.15,2013-06-23 15:49:00,
2013-06-23 10:54:00,70.3,63.5,29.73,WSW,240,7.0,12.0,79,0.00,,,0.05,Wunderground v.1.15,2013-06-23 15:54:00,
2013-06-23 10:59:00,71.0,63.8,29.74,WSW,238,5.0,12.0,78,0.00,,,0.05,Wunderground v.1.15,2013-06-23 15:59:00,
2013-06-23 11:04:00,71.5,63.2,29.74,WSW,252,11.0,11.0,75,0.00,,,0.05,Wunderground v.1.15,2013-06-23 16:04:00,
2013-06-23 11:09:00,72.1,64.9,29.74,WSW,246,9.0,11.0,78,0.00,,,0.05,Wunderground v.1.15,2013-06-23 16:09:00,
2013-06-23 11:14:00,72.8,64.8,29.74,West,261,8.0,12.0,76,0.00,,,0.05,Wunderground v.1.15,2013-06-23 16:14:00,
2013-06-23 11:19:00,72.6,64.6,29.74,WSW,250,8.0,12.0,76,0.00,,,0.05,Wunderground v.1.15,2013-06-23 16:19:00,
2013-06-23 11:24:00,73.1,64.7,29.74,WSW,257,13.0,13.0,75,0.00,,,0.05,Wunderground v.1.15,2013-06-23 16:24:00,
2013-06-23 11:29:00,72.7,63.5,29.74,West,261,5.0,14.0,73,0.00,,,0.05,Wunderground v.1.15,2013-06-23 16:29:00,
2013-06-23 11:34:00,72.6,63.8,29.74,West,271,7.0,12.0,74,0.00,,,0.05,Wunderground v.1.15,2013-06-23 16:34:00,
2013-06-23 11:39:00,72.6,63.1,29.74,WNW,290,11.0,13.0,72,0.00,,,0.05,Wunderground v.1.15,2013-06-23 16:39:00,
2013-06-23 11:44:00,72.8,63.6,29.74,West,261,11.0,15.0,73,0.00,,,0.05,Wunderground v.1.15,2013-06-23 16:44:00,
2013-06-23 11:49:00,72.9,63.7,29.73,WSW,254,8.0,11.0,73,0.00,,,0.05,Wunderground v.1.15,2013-06-23 16:49:00,
2013-06-23 11:55:00,72.7,63.5,29.73,West,265,11.0,14.0,73,0.00,,,0.05,Wunderground v.1.15,2013-06-23 16:55:00,
2013-06-23 11:57:00,72.7,63.5,29.73,WSW,257,9.0,15.0,73,0.00,,,0.05,Wunderground v.1.15,2013-06-23 16:57:00,
2013-06-23 11:58:00,72.8,63.6,29.73,WSW,252,7.0,15.0,73,0.00,,,0.05,Wunderground v.1.15,2013-06-23 16:58:00,
2013-06-23 12:03:00,73.3,64.9,29.73,WSW,245,11.0,12.0,75,0.00,,,0.05,Wunderground v.1.15,2013-06-23 17:03:00,
2013-06-23 12:08:00,73.1,63.5,29.73,West,279,9.0,13.0,72,0.00,,,0.05,Wunderground v.1.15,2013-06-23 17:08:00,
2013-06-23 12:13:00,73.2,64.0,29.73,West,260,14.0,15.0,73,0.00,,,0.05,Wunderground v.1.15,2013-06-23 17:13:00,
2013-06-23 12:18:00,72.8,63.2,29.74,SW,227,12.0,17.0,72,0.00,,,0.05,Wunderground v.1.15,2013-06-23 17:18:00,
2013-06-23 12:23:00,73.0,63.8,29.74,WSW,254,10.0,12.0,73,0.00,,,0.05,Wunderground v.1.15,2013-06-23 17:23:00,
2013-06-23 12:28:00,73.2,63.2,29.74,WSW,246,7.0,15.0,71,0.00,,,0.05,Wunderground v.1.15,2013-06-23 17:28:00,
2013-06-23 12:33:00,73.4,63.4,29.74,SW,231,12.0,15.0,71,0.00,,,0.05,Wunderground v.1.15,2013-06-23 17:33:00,
2013-06-23 12:38:00,73.5,63.9,29.74,West,264,9.0,15.0,72,0.00,,,0.05,Wunderground v.1.15,2013-06-23 17:38:00,
2013-06-23 12:43:00,73.5,63.9,29.74,WSW,257,9.0,15.0,72,0.00,,,0.05,Wunderground v.1.15,2013-06-23 17:43:00,
2013-06-23 12:48:00,73.5,64.3,29.74,WSW,250,13.0,15.0,73,0.00,,,0.05,Wunderground v.1.15,2013-06-23 17:48:00,
2013-06-23 12:53:00,74.1,64.9,29.74,WSW,256,8.0,14.0,73,0.00,,,0.05,Wunderground v.1.15,2013-06-23 17:53:00,
2013-06-23 12:58:00,74.4,64.8,29.74,West,270,7.0,15.0,72,0.00,,,0.05,Wunderground v.1.15,2013-06-23 17:58:00,
2013-06-23 13:03:00,74.8,64.8,29.74,SW,230,9.0,15.0,71,0.00,,,0.05,Wunderground v.1.15,2013-06-23 18:03:00,
2013-06-23 13:08:00,75.0,65.0,29.74,WSW,240,10.0,15.0,71,0.00,,,0.05,Wunderground v.1.15,2013-06-23 18:08:00,
2013-06-23 13:13:00,75.3,64.4,29.74,West,260,8.0,15.0,69,0.00,,,0.05,Wunderground v.1.15,2013-06-23 18:13:00,
2013-06-23 13:18:00,74.9,64.0,29.74,SW,236,10.0,15.0,69,0.00,,,0.05,Wunderground v.1.15,2013-06-23 18:18:00,
2013-06-23 13:23:00,75.1,63.4,29.74,WSW,247,6.0,15.0,67,0.00,,,0.05,Wunderground v.1.15,2013-06-23 18:23:00,
2013-06-23 13:28:00,75.4,64.1,29.75,WSW,242,12.0,15.0,68,0.00,,,0.05,Wunderground v.1.15,2013-06-23 18:28:00,
2013-06-23 13:33:00,75.6,64.7,29.74,WNW,286,9.0,17.0,69,0.00,,,0.05,Wunderground v.1.15,2013-06-23 18:33:00,
2013-06-23 13:38:00,75.7,64.0,29.75,WSW,248,9.0,17.0,67,0.00,,,0.05,Wunderground v.1.15,2013-06-23 18:38:00,
2013-06-23 13:43:00,75.8,64.9,29.74,WSW,256,8.0,14.0,69,0.00,,,0.05,Wunderground v.1.15,2013-06-23 18:43:00,
2013-06-23 13:48:00,75.8,63.6,29.74,SW,233,12.0,15.0,66,0.00,,,0.05,Wunderground v.1.15,2013-06-23 18:48:00,
2013-06-23 13:54:00,75.2,63.9,29.74,West,265,6.0,14.0,68,0.00,,,0.05,Wunderground v.1.15,2013-06-23 18:54:00,
2013-06-23 13:59:00,75.2,63.9,29.74,WSW,254,13.0,16.0,68,0.00,,,0.05,Wunderground v.1.15,2013-06-23 18:59:00,
2013-06-23 14:04:00,75.6,65.1,29.74,WSW,238,11.0,15.0,70,0.00,,,0.05,Wunderground v.1.15,2013-06-23 19:04:00,
2013-06-23 14:09:00,75.8,64.9,29.74,WSW,249,10.0,16.0,69,0.00,,,0.05,Wunderground v.1.15,2013-06-23 19:09:00,
2013-06-23 14:14:00,75.8,64.5,29.74,West,261,11.0,16.0,68,0.00,,,0.05,Wunderground v.1.15,2013-06-23 19:14:00,
2013-06-23 14:19:00,76.1,65.6,29.74,West,271,8.0,16.0,70,0.00,,,0.05,Wunderground v.1.15,2013-06-23 19:19:00,
2013-06-23 14:24:00,76.2,65.3,29.74,West,263,9.0,15.0,69,0.00,,,0.05,Wunderground v.1.15,2013-06-23 19:24:00,
2013-06-23 14:29:00,76.2,65.3,29.74,WSW,245,11.0,15.0,69,0.00,,,0.05,Wunderground v.1.15,2013-06-23 19:29:00,
2013-06-23 14:34:00,76.6,65.2,29.74,West,272,9.0,14.0,68,0.00,,,0.05,Wunderground v.1.15,2013-06-23 19:34:00,
2013-06-23 14:39:00,77.0,65.2,29.74,West,262,10.0,14.0,67,0.00,,,0.05,Wunderground v.1.15,2013-06-23 19:39:00,
2013-06-23 14:44:00,76.9,65.1,29.74,West,263,13.0,13.0,67,0.00,,,0.05,Wunderground v.1.15,2013-06-23 19:44:00,
2013-06-23 14:49:00,76.8,65.4,29.74,SW,234,6.0,13.0,68,0.00,,,0.05,Wunderground v.1.15,2013-06-23 19:49:00,
2013-06-23 14:54:00,77.1,64.9,29.74,SW,225,9.0,13.0,66,0.00,,,0.05,Wunderground v.1.15,2013-06-23 19:54:00,
2013-06-23 14:59:00,77.1,65.7,29.74,West,269,8.0,13.0,68,0.00,,,0.05,Wunderground v.1.15,2013-06-23 19:59:00,
2013-06-23 15:04:00,77.2,66.2,29.74,WSW,246,7.0,13.0,69,0.00,,,0.05,Wunderground v.1.15,2013-06-23 20:04:00,
2013-06-23 15:09:00,77.3,65.9,29.74,WSW,253,8.0,13.0,68,0.00,,,0.05,Wunderground v.1.15,2013-06-23 20:09:00,
2013-06-23 15:14:00,77.4,66.0,29.74,West,268,7.0,13.0,68,0.00,,,0.05,Wunderground v.1.15,2013-06-23 20:14:00,
2013-06-23 15:19:00,77.5,64.8,29.73,SW,219,6.0,13.0,65,0.00,,,0.05,Wunderground v.1.15,2013-06-23 20:19:00,
2013-06-23 15:24:00,77.8,66.0,29.73,WSW,253,7.0,10.0,67,0.00,,,0.05,Wunderground v.1.15,2013-06-23 20:24:00,
2013-06-23 15:29:00,77.5,65.7,29.74,West,259,8.0,13.0,67,0.00,,,0.05,Wunderground v.1.15,2013-06-23 20:29:00,
2013-06-23 15:34:00,77.4,65.1,29.74,West,273,7.0,14.0,66,0.00,,,0.05,Wunderground v.1.15,2013-06-23 20:34:00,
2013-06-23 15:39:00,77.6,65.8,29.74,WSW,246,11.0,14.0,67,0.00,,,0.05,Wunderground v.1.15,2013-06-23 20:39:00,
2013-06-23 15:44:00,78.2,65.9,29.74,SW,230,9.0,11.0,66,0.00,,,0.05,Wunderground v.1.15,2013-06-23 20:44:00,
2013-06-23 15:49:00,78.3,66.4,29.74,WSW,253,9.0,11.0,67,0.00,,,0.05,Wunderground v.1.15,2013-06-23 20:49:00,
2013-06-23 15:54:00,78.2,65.5,29.74,SW,233,10.0,12.0,65,0.00,,,0.05,Wunderground v.1.15,2013-06-23 20:54:00,
2013-06-23 15:59:00,78.4,66.1,29.74,WSW,247,9.0,12.0,66,0.00,,,0.05,Wunderground v.1.15,2013-06-23 20:59:00,
2013-06-23 16:04:00,78.5,65.8,29.74,West,265,6.0,10.0,65,0.00,,,0.05,Wunderground v.1.15,2013-06-23 21:04:00,
2013-06-23 16:09:00,78.4,65.2,29.74,WSW,240,8.0,13.0,64,0.00,,,0.05,Wunderground v.1.15,2013-06-23 21:09:00,
2013-06-23 16:14:00,78.2,64.6,29.74,West,269,6.0,10.0,63,0.00,,,0.05,Wunderground v.1.15,2013-06-23 21:14:00,
2013-06-23 16:19:00,78.4,65.2,29.74,WSW,256,10.0,13.0,64,0.00,,,0.05,Wunderground v.1.15,2013-06-23 21:19:00,
2013-06-23 16:24:00,78.3,66.0,29.74,WSW,246,5.0,13.0,66,0.00,,,0.05,Wunderground v.1.15,2013-06-23 21:24:00,
2013-06-23 16:29:00,78.5,65.3,29.74,WSW,255,10.0,13.0,64,0.00,,,0.05,Wunderground v.1.15,2013-06-23 21:29:00,
2013-06-23 16:34:00,78.6,65.8,29.74,West,268,8.0,10.0,65,0.00,,,0.05,Wunderground v.1.15,2013-06-23 21:34:00,
2013-06-23 16:39:00,78.5,65.8,29.74,WSW,246,7.0,11.0,65,0.00,,,0.05,Wunderground v.1.15,2013-06-23 21:39:00,
2013-06-23 16:44:00,78.5,65.8,29.74,West,268,7.0,12.0,65,0.00,,,0.05,Wunderground v.1.15,2013-06-23 21:44:00,
2013-06-23 16:49:00,78.7,66.8,29.74,West,264,4.0,7.0,67,0.00,,,0.05,Wunderground v.1.15,2013-06-23 21:49:00,
2013-06-23 16:54:00,78.7,65.9,29.74,West,272,8.0,12.0,65,0.00,,,0.05,Wunderground v.1.15,2013-06-23 21:54:00,
2013-06-23 16:59:00,78.5,65.8,29.74,WSW,256,6.0,7.0,65,0.00,,,0.05,Wunderground v.1.15,2013-06-23 21:59:00,
2013-06-23 17:04:00,78.5,66.2,29.74,West,267,7.0,12.0,66,0.00,,,0.05,Wunderground v.1.15,2013-06-23 22:04:00,
2013-06-23 17:09:00,78.5,66.6,29.74,WSW,255,5.0,8.0,67,0.00,,,0.05,Wunderground v.1.15,2013-06-23 22:09:00,
2013-06-23 17:14:00,78.7,66.8,29.74,WSW,254,7.0,10.0,67,0.00,,,0.05,Wunderground v.1.15,2013-06-23 22:14:00,
2013-06-23 17:20:00,78.7,65.5,29.74,West,280,6.0,7.0,64,0.00,,,0.05,Wunderground v.1.15,2013-06-23 22:20:00,
2013-06-23 17:25:00,78.6,66.7,29.74,West,268,5.0,10.0,67,0.00,,,0.05,Wunderground v.1.15,2013-06-23 22:25:00,
2013-06-23 17:30:00,78.5,67.1,29.74,West,267,8.0,9.0,68,0.00,,,0.05,Wunderground v.1.15,2013-06-23 22:30:00,
2013-06-23 17:35:00,78.2,66.3,29.74,West,267,6.0,10.0,67,0.00,,,0.05,Wunderground v.1.15,2013-06-23 22:35:00,
2013-06-23 17:40:00,78.2,66.3,29.74,West,272,7.0,8.0,67,0.00,,,0.05,Wunderground v.1.15,2013-06-23 22:40:00,
2013-06-23 17:45:00,78.4,66.5,29.74,West,274,3.0,11.0,67,0.00,,,0.05,Wunderground v.1.15,2013-06-23 22:45:00,
2013-06-23 17:50:00,78.5,65.3,29.74,West,280,8.0,8.0,64,0.00,,,0.05,Wunderground v.1.15,2013-06-23 22:50:00,
2013-06-23 17:55:00,78.3,65.6,29.74,West,276,5.0,9.0,65,0.00,,,0.05,Wunderground v.1.15,2013-06-23 22:55:00,
2013-06-23 18:00:00,78.2,65.5,29.75,West,277,8.0,10.0,65,0.00,,,0.05,Wunderground v.1.15,2013-06-23 23:00:00,
2013-06-23 18:05:00,78.1,65.8,29.75,West,277,4.0,10.0,66,0.00,,,0.05,Wunderground v.1.15,2013-06-23 23:05:00,
2013-06-23 18:10:00,78.4,66.1,29.75,West,278,6.0,7.0,66,0.00,,,0.05,Wunderground v.1.15,2013-06-23 23:10:00,
2013-06-23 18:15:00,78.7,65.9,29.75,West,280,4.0,9.0,65,0.00,,,0.05,Wunderground v.1.15,2013-06-23 23:15:00,
2013-06-23 18:20:00,78.5,65.8,29.75,WNW,282,6.0,8.0,65,0.00,,,0.05,Wunderground v.1.15,2013-06-23 23:20:00,
2013-06-23 18:25:00,78.4,65.7,29.75,West,281,5.0,8.0,65,0.00,,,0.05,Wunderground v.1.15,2013-06-23 23:25:00,
2013-06-23 18:30:00,78.6,65.4,29.75,West,277,6.0,9.0,64,0.00,,,0.05,Wunderground v.1.15,2013-06-23 23:30:00,
2013-06-23 18:35:00,78.6,65.4,29.75,West,276,7.0,9.0,64,0.00,,,0.05,Wunderground v.1.15,2013-06-23 23:35:00,
2013-06-23 18:40:00,78.6,66.3,29.75,West,276,5.0,5.0,66,0.00,,,0.05,Wunderground v.1.15,2013-06-23 23:40:00,
2013-06-23 18:45:00,78.5,65.3,29.75,WNW,286,4.0,10.0,64,0.00,,,0.05,Wunderground v.1.15,2013-06-23 23:45:00,
2013-06-23 18:51:00,78.5,66.2,29.75,WNW,286,5.0,5.0,66,0.00,,,0.05,Wunderground v.1.15,2013-06-23 23:51:00,
2013-06-23 18:56:00,78.4,65.2,29.75,WNW,291,3.0,17.0,64,0.00,,,0.05,Wunderground v.1.15,2013-06-23 23:56:00,
2013-06-23 19:01:00,78.4,65.7,29.75,WNW,291,2.0,7.0,65,0.00,,,0.05,Wunderground v.1.15,2013-06-24 00:01:00,
2013-06-23 19:06:00,78.5,65.8,29.75,WNW,291,4.0,7.0,65,0.00,,,0.05,Wunderground v.1.15,2013-06-24 00:06:00,
2013-06-23 19:11:00,78.5,66.2,29.75,WNW,288,5.0,5.0,66,0.00,,,0.05,Wunderground v.1.15,2013-06-24 00:11:00,
2013-06-23 19:16:00,78.4,65.7,29.75,WNW,288,4.0,6.0,65,0.00,,,0.05,Wunderground v.1.15,2013-06-24 00:16:00,
2013-06-23 19:21:00,78.3,66.0,29.75,WNW,288,3.0,4.0,66,0.00,,,0.05,Wunderground v.1.15,2013-06-24 00:21:00,
2013-06-23 19:26:00,78.2,65.5,29.76,WNW,288,3.0,6.0,65,0.00,,,0.05,Wunderground v.1.15,2013-06-24 00:26:00,
2013-06-23 19:31:00,77.8,64.6,29.76,WNW,288,2.0,4.0,64,0.00,,,0.05,Wunderground v.1.15,2013-06-24 00:31:00,
2013-06-23 19:36:00,77.5,63.9,29.75,WNW,288,5.0,5.0,63,0.00,,,0.05,Wunderground v.1.15,2013-06-24 00:36:00,
2013-06-23 19:41:00,77.5,63.9,29.75,WNW,288,3.0,4.0,63,0.00,,,0.05,Wunderground v.1.15,2013-06-24 00:41:00,
2013-06-23 19:46:00,77.3,64.2,29.75,WNW,288,2.0,5.0,64,0.00,,,0.05,Wunderground v.1.15,2013-06-24 00:46:00,
2013-06-23 19:51:00,77.2,65.0,29.75,WNW,288,2.0,2.0,66,0.00,,,0.05,Wunderground v.1.15,2013-06-24 00:51:00,
2013-06-23 19:56:00,77.0,64.8,29.75,WNW,288,1.0,3.0,66,0.00,,,0.05,Wunderground v.1.15,2013-06-24 00:56:00,
2013-06-23 20:01:00,76.9,65.1,29.75,WNW,288,0.0,2.0,67,0.00,,,0.05,Wunderground v.1.15,2013-06-24 01:01:00,
2013-06-23 20:06:00,76.7,64.9,29.75,WNW,288,1.0,3.0,67,0.00,,,0.05,Wunderground v.1.15,2013-06-24 01:06:00,
2013-06-23 20:11:00,76.4,64.6,29.76,WNW,288,0.0,1.0,67,0.00,,,0.05,Wunderground v.1.15,2013-06-24 01:11:00,
2013-06-23 20:16:00,76.3,65.0,29.76,WNW,288,0.0,1.0,68,0.00,,,0.05,Wunderground v.1.15,2013-06-24 01:16:00,
2013-06-23 20:21:00,76.2,64.9,29.76,WNW,288,0.0,0.0,68,0.00,,,0.05,Wunderground v.1.15,2013-06-24 01:21:00,
2013-06-23 20:26:00,76.1,64.8,29.75,WNW,288,0.0,0.0,68,0.00,,,0.05,Wunderground v.1.15,2013-06-24 01:26:00,
2013-06-23 20:31:00,76.1,65.2,29.76,WNW,288,0.0,0.0,69,0.00,,,0.05,Wunderground v.1.15,2013-06-24 01:31:00,
2013-06-23 20:36:00,75.9,64.6,29.76,WNW,288,0.0,0.0,68,0.00,,,0.05,Wunderground v.1.15,2013-06-24 01:36:00,
2013-06-23 20:41:00,75.6,64.7,29.76,WNW,288,0.0,0.0,69,0.00,,,0.05,Wunderground v.1.15,2013-06-24 01:41:00,
2013-06-23 20:46:00,75.2,65.1,29.76,WNW,288,0.0,0.0,71,0.00,,,0.05,Wunderground v.1.15,2013-06-24 01:46:00,
2013-06-23 20:51:00,74.6,65.4,29.76,WNW,288,0.0,0.0,73,0.00,,,0.05,Wunderground v.1.15,2013-06-24 01:51:00,
2013-06-23 20:56:00,73.9,65.1,29.76,WNW,288,0.0,0.0,74,0.00,,,0.05,Wunderground v.1.15,2013-06-24 01:56:00,
2013-06-23 21:01:00,72.8,64.4,29.76,WNW,288,0.0,0.0,75,0.00,,,0.05,Wunderground v.1.15,2013-06-24 02:01:00,
2013-06-23 21:06:00,71.5,63.9,29.76,WNW,288,0.0,0.0,77,0.00,,,0.05,Wunderground v.1.15,2013-06-24 02:06:00,
2013-06-23 21:11:00,70.7,63.9,29.76,WNW,288,0.0,0.0,79,0.00,,,0.05,Wunderground v.1.15,2013-06-24 02:11:00,
2013-06-23 21:16:00,69.8,63.7,29.76,WNW,288,0.0,0.0,81,0.00,,,0.05,Wunderground v.1.15,2013-06-24 02:16:00,
2013-06-23 21:21:00,69.0,62.9,29.76,WNW,288,0.0,0.0,81,0.00,,,0.05,Wunderground v.1.15,2013-06-24 02:21:00,
2013-06-23 21:26:00,68.5,63.1,29.76,WNW,288,0.0,0.0,83,0.00,,,0.05,Wunderground v.1.15,2013-06-24 02:26:00,
2013-06-23 21:31:00,68.0,63.0,29.77,WNW,288,0.0,0.0,84,0.00,,,0.05,Wunderground v.1.15,2013-06-24 02:31:00,
2013-06-23 21:37:00,67.5,62.5,29.77,WNW,288,0.0,0.0,84,0.00,,,0.05,Wunderground v.1.15,2013-06-24 02:37:00,
2013-06-23 21:42:00,67.0,62.3,29.77,WNW,288,0.0,0.0,85,0.00,,,0.05,Wunderground v.1.15,2013-06-24 02:42:00,
2013-06-23 21:47:00,66.6,61.9,29.77,WNW,288,0.0,0.0,85,0.00,,,0.05,Wunderground v.1.15,2013-06-24 02:47:00,
2013-06-23 21:52:00,66.1,61.8,29.77,WNW,288,0.0,0.0,86,0.00,,,0.05,Wunderground v.1.15,2013-06-24 02:52:00,
2013-06-23 21:57:00,65.7,61.4,29.77,WNW,288,0.0,0.0,86,0.00,,,0.05,Wunderground v.1.15,2013-06-24 02:57:00,
2013-06-23 22:02:00,65.3,61.0,29.77,WNW,288,0.0,0.0,86,0.00,,,0.05,Wunderground v.1.15,2013-06-24 03:02:00,
2013-06-23 22:07:00,65.0,61.0,29.78,WNW,288,0.0,0.0,87,0.00,,,0.05,Wunderground v.1.15,2013-06-24 03:07:00,
2013-06-23 22:12:00,64.7,60.7,29.79,WNW,288,0.0,0.0,87,0.00,,,0.05,Wunderground v.1.15,2013-06-24 03:12:00,
2013-06-23 22:17:00,64.5,60.9,29.79,WNW,288,0.0,0.0,88,0.00,,,0.05,Wunderground v.1.15,2013-06-24 03:17:00,
2013-06-23 22:22:00,64.3,60.7,29.79,WNW,288,0.0,0.0,88,0.00,,,0.05,Wunderground v.1.15,2013-06-24 03:22:00,
2013-06-23 22:27:00,64.0,60.4,29.80,WNW,288,0.0,0.0,88,0.00,,,0.05,Wunderground v.1.15,2013-06-24 03:27:00,
2013-06-23 22:32:00,63.9,60.6,29.80,WNW,288,0.0,0.0,89,0.00,,,0.05,Wunderground v.1.15,2013-06-24 03:32:00,
2013-06-23 22:37:00,63.7,60.4,29.80,WNW,288,0.0,0.0,89,0.00,,,0.05,Wunderground v.1.15,2013-06-24 03:37:00,
2013-06-23 22:42:00,63.5,60.2,29.80,WNW,288,0.0,0.0,89,0.00,,,0.05,Wunderground v.1.15,2013-06-24 03:42:00,
2013-06-23 22:47:00,63.2,59.9,29.80,WNW,288,0.0,0.0,89,0.00,,,0.05,Wunderground v.1.15,2013-06-24 03:47:00,
2013-06-23 22:53:00,63.0,59.7,29.80,WNW,288,0.0,0.0,89,0.00,,,0.05,Wunderground v.1.15,2013-06-24 03:53:00,
2013-06-23 22:58:00,63.1,60.1,29.80,WNW,288,0.0,0.0,90,0.00,,,0.05,Wunderground v.1.15,2013-06-24 03:58:00,
2013-06-23 23:01:00,63.5,60.5,29.80,WNW,288,0.0,0.0,90,0.00,,,0.05,Wunderground v.1.15,2013-06-24 04:01:00,
2013-06-23 23:06:00,64.1,61.7,29.80,WNW,288,0.0,0.0,92,0.00,,,0.05,Wunderground v.1.15,2013-06-24 04:06:00,
2013-06-23 23:11:00,64.3,61.6,29.80,WNW,288,0.0,0.0,91,0.00,,,0.05,Wunderground v.1.15,2013-06-24 04:11:00,
2013-06-23 23:16:00,64.1,61.1,29.80,WNW,288,0.0,0.0,90,0.00,,,0.05,Wunderground v.1.15,2013-06-24 04:16:00,
2013-06-23 23:21:00,63.6,60.6,29.80,WNW,288,0.0,0.0,90,0.00,,,0.05,Wunderground v.1.15,2013-06-24 04:21:00,
2013-06-23 23:26:00,63.1,60.1,29.81,WNW,288,0.0,0.0,90,0.00,,,0.05,Wunderground v.1.15,2013-06-24 04:26:00,
2013-06-23 23:32:00,62.9,59.9,29.80,WNW,288,0.0,0.0,90,0.00,,,0.05,Wunderground v.1.15,2013-06-24 04:32:00,
2013-06-23 23:37:00,62.7,59.7,29.81,WNW,288,0.0,0.0,90,0.00,,,0.05,Wunderground v.1.15,2013-06-24 04:37:00,
2013-06-23 23:42:00,62.4,59.4,29.81,WNW,288,0.0,0.0,90,0.00,,,0.05,Wunderground v.1.15,2013-06-24 04:42:00,
2013-06-23 23:47:00,62.2,59.2,29.81,WNW,288,0.0,0.0,90,0.00,,,0.05,Wunderground v.1.15,2013-06-24 04:47:00,
2013-06-23 23:52:00,62.1,59.4,29.81,WNW,288,0.0,0.0,91,0.00,,,0.05,Wunderground v.1.15,2013-06-24 04:52:00,
2013-06-23 23:57:00,62.1,59.4,29.81,WNW,288,0.0,0.0,91,0.00,,,0.05,Wunderground v.1.15,2013-06-24 04:57:00,